Regional Weather Roundup
Issued by NWS Jackson, KY

Home | Current Version | Previous Version | Graphics & Text | Print | Product List | Glossary On
Versions: 1 2 3 4 5 6 7 8 9 10 11 12 13 14 15 16 17 18 19 20 21 22 23 24 25 26 27 28 29 30 31 32 33 34 35 36 37 38 39 40 41 42 43 44 45 46 47 48 49 50
000
ASUS43 KJKL 152210
RWRJKL

EAST KENTUCKY HOURLY WEATHER ROUNDUP
NATIONAL WEATHER SERVICE JACKSON KY
600 PM EDT TUE APR 15 2014

NOTE: "FAIR" INDICATES FEW OR NO CLOUDS BELOW 12,000 FEET WITH
NO SIGNIFICANT WEATHER AND/OR OBSTRUCTIONS TO VISIBILITY.

* THESE REPORTS ARE NOT UNDER NWS QUALITY CONTROL AND MAY NOT
  REPORT WEATHER SUCH AS PRECIPITATION AND FOG.

KYZ079-080-083-085-087-088-110-112-115-119-120-152300
...EASTERN KENTUCKY...

CITY           SKY/WX    TMP DP  RH WIND       PRES   REMARKS
JACKSON        CLOUDY    37  22  54 NW13      30.06R WCI  29
LONDON         CLOUDY    39  27  62 NW13      30.09R WCI  31
SOMERSET*      CLOUDY    41  23  48 N14G20    30.13R
MONTICELLO*    CLOUDY    42  27  55 N10       30.13R
WILLIAMSBURG*  CLOUDY    39  27  60 N10       30.09R WCI  32
MIDDLESBORO*   CLOUDY    38  29  68 N8        30.08R WCI  33
HARLAN APT*    CLOUDY    36  28  75 NW6       30.06R WCI  31
BLACK MTN*       N/A     23  23 100 N8          N/A  WCI  14
PIKEVILLE APT* CLOUDY    34  27  75 NW9G17    30.06R WCI  26
BIG SANDY*     CLOUDY    37  27  69 NW5       30.07R WCI  33
MOREHEAD APT*  CLOUDY    37  23  56 NW8       30.13R WCI  31
$$

KYZ035-036-041-042-044-050-067-078-099-152300
...CENTRAL KENTUCKY...

CITY           SKY/WX    TMP DP  RH WIND       PRES   REMARKS
MT STERLING*   CLOUDY    39  23  52 N9        30.12R WCI  33
FLEMING/MASON* CLOUDY    37  18  47 NW15G24   30.12R WCI  28
DANVILLE*      CLOUDY    41  28  60 N12       30.12S
RICHMOND*      CLOUDY    39  25  56 NW14G21   30.10R WCI  31
LEXINGTON      CLOUDY    40  22  48 NW10      30.12R WCI  33
FRANKFORT      PTSUNNY   39  22  50 NW9G18    30.13R WCI  33
$$

KYZ091>093-OHZ055-061-077-WVZ005-015-034-035-042-152300
...SOUTHERN OHIO/WEST VIRGINIA...

CITY           SKY/WX    TMP DP  RH WIND       PRES   REMARKS
COVINGTON      PTSUNNY   38  19  46 NW16      30.13R WCI  29
COLUMBUS       CLOUDY    36  18  48 NW15G25   30.09R WCI  27
DAYTON         PTSUNNY   35  18  49 NW18      30.13R WCI  24
WILMINGTON     CLOUDY    35  19  52 NW15      30.10R WCI  25
HUNTINGTON     CLOUDY    37  22  54 NW13G20   30.08R WCI  29
CHARLESTON     FLURRIES  36  25  64 NW10G25   30.05R WCI  28
PINEVILLE*     CLOUDY    37  32  84 MISG      30.04R
BECKLEY        LGT SNOW  30  25  81 NW16G24   29.94R WCI  19
BLUEFIELD      CLOUDY    32  26  78 NW15G24   29.90F WCI  22
$$

VAZ002-007-008-TNZ017-027-036-066-071-152300
...SOUTHWEST VIRGINIA/EAST TENNESSEE...

CITY           SKY/WX    TMP DP  RH WIND       PRES   REMARKS
WISE*          CLOUDY    32  30  93 NW10G17   29.99R WCI  24
ABINGDON*      CLOUDY    36  29  76 N5        29.97R WCI  32
BRISTOL        CLOUDY    38  29  70 NW7       30.00R WCI  33
KNOXVILLE      CLOUDY    41  28  60 N12       30.07R
OAK RIDGE      CLOUDY    43  27  53 NW8       30.09R
CROSSVILLE     PTSUNNY   39  25  57 NW13      30.07R WCI  31
NASHVILLE      MOSUNNY   46  22  38 N13       30.17R
$$

...KEY TO REMARKS...
VSB - VISIBILITY IN MILES
WCI - WIND CHILL INDEX
HX  - HEAT INDEX

$$



USA.gov is the U.S. government's official web portal to all federal, state and local government web resources and services.